Weather History for Solander Island, BC

Change the Weather History Date:

Sunday, January 27, 2013

  Actual Average Record
Temperature  
Mean Temperature 41 °F -  
Max Temperature 43 °F - - ()
Min Temperature 39 °F - - ()
Degree Days  
Heating Degree Days 24    
Moisture  
Dew Point 37 °F    
Average Humidity 82    
Maximum Humidity 93    
Minimum Humidity 69    
Precipitation  
Precipitation 0.24 in - - ()
Sea Level Pressure  
Sea Level Pressure 29.99 in    
Wind  
Wind Speed 15 mph ()    
Max Wind Speed 30 mph    
Max Gust Speed 30 mph    
T = Trace of Precipitation, MM = Missing Value Source: Averaged Metar Reports

Daily Weather History Graph

Daily Weather History Graph

Search for Another Location

Airport:

Trip Planner

Search our weather history database for the weather conditions in past years. The results will help you decide how hot, cold, wet, or windy it might be!

Date:

Astronomy

Jan. 27, 2013 Rise Set
Actual Time 8:11 AM PST 5:17 PM PST
Civil Twilight 7:36 AM PST 5:53 PM PST
Nautical Twilight 6:57 AM PST 6:32 PM PST
Astronomical Twilight 6:18 AM PST 7:10 PM PST
Moon 6:30 PM PST (1/27) 7:59 AM PST (1/27)
Length of Visible Light 10h 17m
Length of Day
9h 06m
Full, 100% of the Moon is Illuminated
Jan 27
Full
Feb 3
Last Quarter
Feb 9
New
Feb 17
First Quarter
Feb 25
Full

Hourly Weather History & Observations

Time (PST) Temp. Windchill Dew Point Humidity Pressure Visibility Wind Dir Wind Speed Gust Speed Precip Events Conditions
12:00 AM 41.4 °F 33.6 °F 38.1 °F 88% 30.01 in - West 15.0 mph - N/A   Unknown
1:00 AM 42.1 °F 35.2 °F 37.9 °F 85% 30.00 in - West 12.7 mph - N/A   Unknown
2:00 AM 41.5 °F 35.4 °F 37.8 °F 86% 29.99 in - West 10.4 mph - N/A   Unknown
3:00 AM 41.7 °F 35.6 °F 37.8 °F 86% 29.99 in - West 10.4 mph - N/A   Unknown
4:00 AM 42 °F - 37 °F 75% 29.98 in - West 15.0 mph - -  
5:00 AM 41.4 °F 36.8 °F 36.9 °F 84% 29.98 in - WNW 6.9 mph - 0.02 in   Unknown
6:00 AM 40.1 °F 32.4 °F 37.0 °F 89% 29.97 in - WNW 13.8 mph - 0.03 in   Unknown
7:00 AM 40.5 °F 35.8 °F 38.3 °F 92% 29.96 in - West 6.9 mph - 0.03 in   Unknown
8:00 AM 40.6 °F 36.0 °F 38.7 °F 93% 29.95 in - WNW 6.9 mph - 0.03 in   Unknown
9:00 AM 40.1 °F 32.0 °F 37.2 °F 89% 29.96 in - West 15.0 mph - 0.08 in   Unknown
10:00 AM 40 °F - 37 °F 87% 29.96 in - WNW 17.3 mph - -  
10:00 AM 40.3 °F 31.6 °F 37.4 °F 89% 29.96 in - WNW 17.3 mph - 0.04 in   Unknown
11:00 AM 41.2 °F 33.7 °F 37.9 °F 88% 29.97 in - NW 13.8 mph - 0.02 in   Unknown
12:00 PM 41.9 °F 33.1 °F 37.2 °F 83% 29.98 in - NW 19.6 mph - 0.02 in   Unknown
1:00 PM 42.8 °F 34.8 °F 38.7 °F 85% 29.98 in - NW 17.3 mph - N/A   Unknown
2:00 PM 43.2 °F 34.0 °F 38.5 °F 84% 29.97 in - NW 23.0 mph 29.9 mph N/A   Unknown
3:00 PM 43.2 °F 34.0 °F 38.5 °F 84% 29.98 in - WNW 23.0 mph - N/A   Unknown
4:00 PM 43 °F - 36 °F 70% 29.99 in - WNW 26.5 mph - -  
4:00 PM 43.2 °F 33.4 °F 36.5 °F 77% 29.99 in - WNW 26.5 mph - N/A   Unknown
5:00 PM 42.8 °F 32.7 °F 34.9 °F 74% 30.00 in - NW 27.6 mph - N/A   Unknown
6:00 PM 43.0 °F 32.5 °F 33.8 °F 70% 30.02 in - NW 29.9 mph - N/A   Unknown
7:00 PM 42.3 °F 32.4 °F 35.8 °F 78% 30.03 in - NW 25.3 mph - N/A   Unknown
8:00 PM 43.2 °F 33.2 °F 33.6 °F 69% 30.02 in - NW 27.6 mph - N/A   Unknown
9:00 PM 42.8 °F 32.9 °F 34.7 °F 73% 30.04 in - NW 26.5 mph - N/A   Unknown
10:00 PM 42 °F - 36 °F 71% 30.05 in - NW 21.9 mph - -  
10:00 PM 41.9 °F 32.6 °F 35.8 °F 79% 30.05 in - NW 21.9 mph - N/A   Unknown
11:00 PM 42.3 °F 31.8 °F 35.1 °F 76% 30.04 in - WNW 28.8 mph - N/A   Unknown